Regional Weather Roundup
Issued by NWS

Home | Current Version | Previous Version | Graphics & Text | Print | Product List | Glossary Off
Versions: 1 2 3 4 5 6 7 8 9 10 11 12 13 14 15 16 17 18 19 20 21 22 23 24 25 26 27 28 29 30 31 32 33 34 35 36 37 38 39 40 41 42 43 44 45 46 47 48 49 50

000
ASUS43 KTOP 252208
RWRKS

WEATHER ROUNDUP FOR KANSAS
NATIONAL WEATHER SERVICE GOODLAND KS
500 PM CDT SUN JUN 25 2017

NOTE:  "FAIR" INDICATES FEW OR NO CLOUDS BELOW 12,000 FEET WITH NO
SIGNIFICANT WEATHER AND/OR OBSTRUCTIONS TO VISIBILITY.

KSZ001>006-013>018-027>032-041>047-252300-
NORTHWEST KANSAS

CITY           SKY/WX    TMP DP  RH WIND       PRES   REMARKS
GOODLAND       CLOUDY    61  57  87 E14       30.31F
HAYS           CLOUDY    64  59  83 E15       30.28F
HILL CITY      LGT RAIN  62  59  90 SE7       30.32R FOG
RUSSELL        CLOUDY    64  54  69 E16       30.28F
$$

KSZ061>065-074>080-084>089-252300-
SOUTHWEST KANSAS

CITY           SKY/WX    TMP DP  RH WIND       PRES   REMARKS
DODGE CITY     MOSUNNY   68  61  78 E16       30.26F
ELKHART          N/A     75  53  46 SE21        N/A
GARDEN CITY    PTSUNNY   70  59  68 E20G25    30.25F
GREAT BEND     CLOUDY    65  60  84 NE10      30.28F
LIBERAL        CLOUDY    73  63  70 E13       30.24F
PRATT          LGT RAIN  63  58  85 NE14      30.27F
$$

KSZ066>073-081>083-090>101-252300-
SOUTHEAST KANSAS

CITY           SKY/WX    TMP DP  RH WIND       PRES   REMARKS
CHANUTE        PTSUNNY   81  60  48 N10       30.24S
COFFEYVILLE    MOSUNNY   85  55  35 NW5       30.21F
HUTCHINSON     CLOUDY    67  55  65 NE12G22   30.28F
MEDICINE LODGE   N/A     72  60  66 N16       30.26F
NEWTON         LGT RAIN  66  57  72 N12       30.31R
PARSONS        PTSUNNY   84  55  36 CALM      30.23F
WICHITA INTL   CLOUDY    70  65  84 N15       30.26F
WICHITA JABRA  LGT RAIN  67  64  90 N13       30.27F
WICHITA MCCONL DRIZZLE   68  63  83 NE15      30.27S
WINFIELD       PTSUNNY   81  55  40 SE6       30.23F
$$

KSZ007>012-019>026-033>040-048>060-102>105-252300-
NORTHEAST KANSAS

CITY           SKY/WX    TMP DP  RH WIND       PRES   REMARKS
CONCORDIA      CLOUDY    62  54  74 S6        30.30F
EMPORIA        CLOUDY    67  57  70 N8        30.30S
LAWRENCE       CLOUDY    68  51  54 NW9       30.30R
MANHATTAN      LGT RAIN  62  55  77 CALM      30.30F
MARYSVILLE     MOSUNNY   70  48  46 SW9       30.28F
OLATHE IND     LGT RAIN  68  51  54 N9        30.30R
OLATHE EXE     CLOUDY    71  48  43 N8        30.29R
SALINA         CLOUDY    64  54  69 E10       30.31F
TOPEKA BILLARD LGT RAIN  64  53  67 NW7       30.30S
TOPEKA FORBES  CLOUDY    67  52  58 N6        30.31R
$$




USA.gov is the U.S. government's official web portal to all federal, state and local government web resources and services.